[[{"header":{"parameterUnit":"m.s-1","parameterCategory":1,"la1":30.2991,"la2":30.254,"lo1":-89.0895,"lo2":-89.0444,"dy":0.0017,"dx":0.0017,"nx":28,"ny":28,"refTime":"2025-07-12T03:00:00:Z","depth":0,"parameterNumber":2,"parameterNumberName":"U-component_of_WINDS"},"data":[0,0,0,0,0,0,0,0,0,0,0,0,0,0,0,0,0,0,0,0,0,0,0,0,0,0,0,0,0,0,0,0,0,0,0,0,0,0,0,0,0,0,0,0,0,0,0,0,0,0,0,0,0,0,0,0,0,0,4.2105,4.2106,0,4.2244,4.2246,4.2247,4.2189,4.2185,4.2182,4.2179,4.2322,4.2329,4.2336,0,0,0,0,0,0,0,0,0,0,0,0,0,4.1785,4.1791,4.2104,4.2106,4.2108,4.2244,4.2246,4.2248,4.2189,4.2185,4.2181,4.2177,4.232,4.2328,4.2337,0,0,0,0,0,0,0,0,0,0,0,0,0,4.1924,4.1793,4.2104,4.2095,4.2096,4.2244,4.2246,4.2248,4.219,4.2185,4.218,4.2175,4.2317,4.2327,4.2338,4.2503,0,0,4.237,4.2374,0,0,0,0,0,0,0,0,4.1916,4.1936,4.2095,4.2096,4.2097,4.2194,4.2186,4.2334,4.2191,4.2154,4.2179,4.2173,4.2284,4.2297,4.2334,4.2509,4.2516,4.2371,4.2377,4.2381,4.2384,0,0,0,0,0,0,0,4.1907,4.193,4.216,4.2097,4.2099,4.2083,4.2098,4.2214,4.2246,4.2157,4.2153,4.2171,4.2283,4.2324,4.2337,4.2518,4.237,4.2379,4.2386,4.239,4.2831,4.2836,0,0,0,0,0,0,4.1897,4.1922,4.2155,4.2164,4.1992,4.2093,4.2109,4.2168,4.2244,4.2251,4.2175,4.2167,4.2309,4.2325,4.2342,4.2536,4.2381,4.2391,4.2397,4.2825,4.2832,4.2838,0,0,0,0,0,0,4.1891,4.1919,4.215,4.2042,4.207,4.2104,4.2171,4.2173,4.2214,4.2257,4.2263,4.221,4.2305,4.2327,4.2462,4.254,4.2396,4.2405,4.2819,4.2827,4.2835,4.2929,0,0,0,0,0,0,4.1882,4.1917,4.198,4.2044,4.2076,4.2269,4.2176,4.218,4.2232,4.2223,4.2292,4.2299,4.2303,4.2447,4.2472,4.2552,4.2413,4.2812,4.2823,4.2832,4.2919,4.2939,4.2957,0,0,0,0,0,4.1871,4.2002,4.1984,4.2012,4.2157,4.2273,4.2292,4.2294,4.2239,4.2302,4.2329,4.2297,4.2528,4.2461,4.2489,4.2574,4.2807,4.282,4.2832,4.291,4.2935,4.2956,0,0,0,0,0,0,4.1948,4.2011,4.1991,4.2147,4.2205,4.2263,4.2344,4.2321,4.2396,4.2385,4.2384,4.24,4.2539,4.257,4.2494,4.2735,4.2659,4.2678,4.2709,4.2733,4.2752,4.274,4.2422,0,0,0,0,0,4.1984,4.2073,4.2123,4.2256,4.2286,4.231,4.2361,4.2357,4.2417,4.2442,4.2479,4.2539,4.2624,4.2681,4.2763,4.2924,4.2936,4.2995,4.3014,4.3029,4.3045,4.3128,4.3154,4.2878,4.2878,4.2878,0,0,4.2058,4.2103,4.216,4.2273,4.2317,4.2409,4.2331,4.2433,4.25,4.2457,4.2586,4.2616,4.2682,4.2829,4.2896,4.2859,4.3123,4.3045,4.3057,4.3064,4.3143,4.3169,4.3192,4.2887,4.2885,4.2884,0,0,4.2238,4.2283,4.2397,4.2442,4.251,4.2524,4.2552,4.2613,4.263,4.2759,4.2728,4.2808,4.2957,4.3004,4.3047,4.3242,4.3214,4.3269,4.3367,4.3448,4.347,4.3489,4.3555,4.3579,4.3285,4.3285,4.3285,0,4.2321,4.2459,4.2458,4.2561,4.261,4.2575,4.2688,4.2733,4.2824,4.2858,4.2816,4.2999,4.3042,4.3197,4.3244,4.3282,4.3311,4.3261,4.3467,4.3486,4.3504,4.3567,4.3592,4.3291,4.3291,4.329,4.3289,0,4.2556,4.2651,4.2735,4.2822,4.2881,4.2989,4.3003,4.3063,4.3054,4.3072,4.3202,4.3251,4.334,4.3378,4.3371,4.3532,4.3506,4.3466,4.3389,4.3536,4.3595,4.3619,4.33,4.3298,4.3296,4.3294,0,0,4.279,4.2873,4.2903,4.2941,4.3012,4.3085,4.319,4.3276,4.3326,4.339,4.3476,4.3601,4.3563,4.3612,4.361,4.3681,4.3828,4.3632,4.3633,4.3663,4.4004,4.4031,4.406,4.381,4.3815,4.3818,4.3997,0,4.2973,4.3157,4.3158,4.3327,4.3413,4.3379,4.347,4.3523,4.3542,4.3618,4.3639,4.3726,4.3672,4.37,4.377,4.3795,4.3896,4.3783,4.3888,4.3892,4.3869,4.4091,4.4122,4.4288,4.402,4.4024,4.4027,0,4.3212,4.3281,4.3458,4.3512,4.3548,4.363,4.3707,4.378,4.3838,4.3847,4.3901,4.3887,4.3991,4.3913,4.4056,4.3979,4.4022,4.4041,4.4047,4.4055,4.3966,4.4101,4.4341,4.4365,4.4064,4.4061,4.4059,0,4.3359,4.3498,4.362,4.3653,4.3722,4.3779,4.381,4.3863,4.3913,4.3981,4.4013,4.4092,4.4135,4.4196,4.4202,4.4146,4.4345,4.4268,4.4353,4.4353,4.4395,4.4392,4.4642,4.4429,4.4428,4.4428,4.4427,0,4.3562,4.3671,4.3687,4.3762,4.3881,4.3881,4.4,4.4026,4.4072,4.4151,4.4128,4.4201,4.4207,4.4283,4.4289,4.4404,4.4425,4.4433,4.4433,4.4433,4.4432,4.446,4.4447,4.4434,4.4433,4.4432,4.443,0,4.3747,4.3763,4.3893,4.3946,4.3962,4.4047,4.4092,4.4162,4.4179,4.4278,4.4301,4.4327,4.4414,4.4427,4.4531,4.4534,4.4671,4.4661,4.4651,4.4649,4.4731,4.4722,4.5006,4.5041,4.4808,4.481,4.4812,0,4.3874,4.3957,4.4017,4.4067,4.4101,4.4183,4.4233,4.4236,4.4289,4.4359,4.4421,4.4506,4.4573,4.4714,4.4741,4.4819,4.4808,4.4902,4.4819,4.4816,4.4805,4.4798,4.4805,4.4917,4.492,4.4922,4.4923,0,4.4097,4.4099,4.4173,4.4248,4.4309,4.4369,4.4425,4.4468,4.4477,4.4538,4.4626,4.4678,4.4782,4.4865,4.4941,4.4972,4.4949,4.4949,4.4972,4.4972,4.4961,4.4964,4.4691,4.4942,4.494,4.4939,4.4938,4.4937,4.4254,4.4324,4.4376,4.4458,4.45,4.4553,4.462,4.4644,4.4718,4.4801,4.4799,4.4895,4.4947,4.5047,4.5083,4.5157,4.5126,4.516,4.5168,4.5176,4.5182,4.4952,4.5171,4.5171,4.517,4.517,4.5169,0,4.4472,4.4503,4.4578,4.4657,4.472,4.4693,4.4753,4.4807,4.4892,4.4943,4.5009,4.5108,4.5188,4.5221,4.5299,4.5351,4.5342,4.5371,4.5366,4.5372,4.5207,4.5178,4.5377,4.5377,4.5377,4.5377,4.5377,4.5377,4.4592,4.4708,4.4716,4.4851,4.4882,4.4975,4.5011,4.5058,4.5098,4.521,4.5275,4.5296,4.5339,4.5419,4.549,4.5497,4.5525,4.5559,4.5561,4.5406,4.5385,4.5364,4.5336,4.5566,4.5566,4.5719,4.5721,4.5722]},{"header":{"parameterUnit":"m.s-1","parameterCategory":1,"la1":30.2991,"la2":30.254,"lo1":-89.0895,"lo2":-89.0444,"dy":0.0017,"dx":0.0017,"nx":28,"ny":28,"refTime":"2025-07-12T03:00:00:Z","depth":0,"parameterNumber":3,"parameterNumberName":"V-component_of_WINDS"},"data":[0,0,0,0,0,0,0,0,0,0,0,0,0,0,0,0,0,0,0,0,0,0,0,0,0,0,0,0,0,0,0,0,0,0,0,0,0,0,0,0,0,0,0,0,0,0,0,0,0,0,0,0,0,0,0,0,0,0,1.3979,1.3979,0,1.4017,1.4017,1.4017,1.3975,1.3973,1.3972,1.397,1.4011,1.4013,1.4016,0,0,0,0,0,0,0,0,0,0,0,0,0,1.3871,1.3873,1.3979,1.3979,1.398,1.4017,1.4017,1.4018,1.3975,1.3973,1.3971,1.397,1.401,1.4013,1.4016,0,0,0,0,0,0,0,0,0,0,0,0,0,1.3914,1.3873,1.3979,1.3963,1.3962,1.4016,1.4017,1.4018,1.3976,1.3973,1.3971,1.3969,1.4009,1.4013,1.4016,1.4089,0,0,1.4028,1.403,0,0,0,0,0,0,0,0,1.3912,1.3918,1.3965,1.3964,1.3963,1.3989,1.3994,1.4042,1.3976,1.3971,1.397,1.3967,1.4005,1.4009,1.4022,1.4091,1.4092,1.4029,1.4031,1.4033,1.4034,0,0,0,0,0,0,0,1.3909,1.3916,1.3994,1.3966,1.3965,1.3954,1.3958,1.4002,1.4001,1.3971,1.3968,1.3973,1.4004,1.4018,1.4022,1.4093,1.4028,1.4032,1.4034,1.4036,1.422,1.4223,0,0,0,0,0,0,1.3907,1.3914,1.3993,1.3995,1.3931,1.3958,1.3962,1.3983,1.4001,1.4001,1.3975,1.3971,1.4013,1.4018,1.4024,1.4108,1.4033,1.4036,1.4038,1.4218,1.4221,1.4224,0,0,0,0,0,0,1.3905,1.3915,1.3991,1.3954,1.3963,1.3963,1.3986,1.3985,1.3999,1.4003,1.4003,1.3989,1.4011,1.4018,1.4072,1.4109,1.4038,1.4041,1.4215,1.4219,1.4222,1.4279,0,0,0,0,0,0,1.3902,1.3914,1.3942,1.3955,1.3965,1.4039,1.3989,1.3987,1.4005,1.4,1.4017,1.4017,1.401,1.4067,1.4076,1.4113,1.4044,1.4211,1.4217,1.4221,1.4273,1.4284,1.4293,0,0,0,0,0,1.3898,1.3957,1.3943,1.3953,1.3999,1.4041,1.4047,1.4037,1.4008,1.4036,1.4039,1.4017,1.4103,1.4073,1.4083,1.4122,1.4209,1.4215,1.4221,1.4269,1.4282,1.4293,0,0,0,0,0,0,1.395,1.3959,1.3944,1.4008,1.4024,1.4034,1.4069,1.4051,1.4076,1.4071,1.4057,1.4061,1.4118,1.4125,1.4091,1.4191,1.4151,1.416,1.4185,1.4197,1.4206,1.4204,1.4048,0,0,0,0,0,1.3969,1.4002,1.4008,1.4064,1.4073,1.4069,1.4087,1.4078,1.4094,1.4101,1.4108,1.4125,1.4156,1.4177,1.4206,1.4274,1.4276,1.4305,1.4315,1.4323,1.433,1.4365,1.4378,1.4243,1.4243,1.4243,0,0,1.4008,1.4017,1.4039,1.4074,1.4086,1.412,1.4076,1.4115,1.414,1.4107,1.4158,1.4164,1.4182,1.4243,1.427,1.425,1.4368,1.433,1.4337,1.434,1.4373,1.4385,1.4397,1.4247,1.4246,1.4245,0,0,1.4097,1.4108,1.4155,1.4166,1.4184,1.4181,1.4192,1.4204,1.4206,1.4257,1.4232,1.4262,1.4316,1.4329,1.4343,1.4435,1.4415,1.4444,1.4495,1.453,1.454,1.455,1.4581,1.4593,1.4452,1.4452,1.4452,0,1.4145,1.4195,1.4182,1.4222,1.4237,1.4208,1.4255,1.4267,1.4294,1.4305,1.4282,1.4348,1.4358,1.4421,1.4443,1.4455,1.4467,1.4443,1.454,1.4549,1.4558,1.4588,1.46,1.4455,1.4455,1.4454,1.4454,0,1.4252,1.4287,1.4323,1.4348,1.4368,1.4411,1.4404,1.4425,1.4413,1.4412,1.4463,1.4474,1.4504,1.4518,1.4507,1.4579,1.4566,1.4542,1.4502,1.4574,1.4602,1.4614,1.446,1.4459,1.4458,1.4457,0,0,1.4377,1.4391,1.4404,1.4414,1.443,1.4457,1.4499,1.4526,1.4545,1.4563,1.4597,1.4642,1.4619,1.4635,1.4625,1.4655,1.4725,1.4627,1.4627,1.4645,1.4804,1.4822,1.4835,1.4712,1.4714,1.4716,1.4802,0,1.4466,1.4537,1.4525,1.4594,1.4626,1.4597,1.4633,1.4646,1.4646,1.4673,1.4673,1.4704,1.4672,1.4681,1.471,1.4711,1.4757,1.4705,1.4744,1.4745,1.474,1.485,1.487,1.4951,1.4813,1.4815,1.4816,0,1.458,1.46,1.4673,1.4681,1.4694,1.4727,1.475,1.4776,1.479,1.4788,1.4804,1.4788,1.4829,1.4787,1.4843,1.4807,1.4822,1.4825,1.4828,1.4831,1.4785,1.4857,1.4976,1.4988,1.4833,1.4832,1.4831,0,1.4663,1.4709,1.4757,1.4767,1.4778,1.4802,1.4808,1.4819,1.4836,1.4856,1.4866,1.4892,1.4906,1.4925,1.4916,1.4887,1.4973,1.4931,1.4972,1.4972,1.4992,1.4991,1.5116,1.5002,1.5002,1.5002,1.5001,0,1.4763,1.4809,1.4795,1.4825,1.4874,1.4859,1.4908,1.491,1.492,1.495,1.4926,1.4955,1.4941,1.4968,1.4961,1.5007,1.5014,1.5013,1.5011,1.5015,1.5015,1.5025,1.5019,1.5005,1.5004,1.5003,1.5003,0,1.4865,1.4857,1.4908,1.4914,1.4916,1.4952,1.4957,1.4985,1.4982,1.502,1.5028,1.5023,1.5054,1.5046,1.508,1.5075,1.5133,1.5124,1.5129,1.5126,1.5167,1.5163,1.5303,1.532,1.5195,1.5196,1.5197,0,1.493,1.4964,1.4972,1.499,1.4997,1.5026,1.5042,1.5028,1.5046,1.5063,1.5089,1.5117,1.5138,1.5188,1.5188,1.5213,1.5204,1.5251,1.5208,1.5211,1.5205,1.5203,1.5205,1.526,1.5262,1.5263,1.5264,0,1.5046,1.5039,1.5064,1.5086,1.5106,1.5123,1.5139,1.5154,1.5141,1.5162,1.5192,1.5209,1.5242,1.527,1.5293,1.5299,1.5279,1.5277,1.5288,1.5293,1.5294,1.5293,1.5152,1.5274,1.5273,1.5273,1.5272,1.5272,1.5131,1.5158,1.5168,1.5195,1.5205,1.5219,1.5245,1.5244,1.5269,1.5294,1.5284,1.5318,1.5329,1.5357,1.5366,1.5392,1.5375,1.539,1.5394,1.5398,1.5403,1.5289,1.5396,1.5396,1.5396,1.5396,1.5395,0,1.5244,1.5249,1.5274,1.5295,1.5316,1.5294,1.5309,1.5328,1.5358,1.537,1.5391,1.5425,1.5451,1.5452,1.5477,1.5498,1.5489,1.5505,1.5503,1.5505,1.5418,1.5406,1.5511,1.5511,1.5511,1.5511,1.5511,1.5511,1.5306,1.5352,1.5347,1.5396,1.54,1.5433,1.5443,1.5456,1.5464,1.5503,1.5524,1.5524,1.5531,1.5556,1.5579,1.5578,1.5588,1.5607,1.5603,1.5522,1.5511,1.55,1.5489,1.5609,1.5609,1.5687,1.5688,1.5689]}]]